Location: Unspecified
(40.7945°N, 111.1337°W)
Time: 06:45:19
(UTC-06:00)

Vanguard 1 - Pass Details

Date: 19 June 2019
Orbit: 653 x 3830 km, 34.3° (Epoch: 20 July)

Event Time Altitude Azimuth Distance (km) Brightness Sun altitude
Exits shadow 03:07:49 24° 187° (S) 4,820 13.0 -21.6°
Maximum altitude 03:15:00 32° 153° (SSE) 3,795 12.7 -21.0°
Drops below altitude 10° 03:25:11 10° 96° (E) 4,205 13.6 -20.1°
Sets 03:28:19 0° 86° (E) 4,819 14.1 -19.8°
